Погода в Облучье

Россия / Еврейская автономная область     49°01′08″N   131°03′14″E
темп.,
°C
ветер,
м/с
пор.,
м/с
влажн.,
%
обл.,
%
осадки,
мм/ч
давл.,
гПа
погр.,
м
12 мая, ср
ср1201:00+5вюв51289100 0.0 1015409
04:00+5вюв61492100 0.0 1015516
07:00+5вюв71689100 0.0 1012645
10:00+7вюв81881100 0.0 1009713
13:00+8юв81486100 1.3 10071144
16:00+8юв61292100 3.4 1006938
19:00+7вюв71396100 0.3 1005766
22:00+8юв71595100 2.1 1003745
13 мая, чт
чт1301:00+8юв6139682 1.4 1002725
04:00+7юв4997100 2.0 1002484
07:00+7вюв2698100 0.2 1003372
10:00+8ююз279298 1.1 1004604
13:00+10юз3785100 0.9 1004870
16:00+11з378337 1.7 1005871
19:00+11з398545 1.1 1005959
22:00+6з259754 1.6 1008137
14 мая, пт
пт1401:00+4з139934 0.0 100978
04:00+4зюз019989 0.0 101063
07:00+6зсз019690 0.0 1011209
10:00+12юв117399 0.0 1010418
13:00+18ююв3441100 0.0 10071171
16:00+20ю3635100 0.0 10051678
19:00+17юв51251100 0.0 1004858
22:00+14юв51462100 0.0 1002508
15 мая, сб
сб1501:00+10вюв2396100 3.6 1002100
04:00+10з2599100 11.3 1000363
07:00+9з2697100 2.3 1000431
10:00+12з577682 2.4 10001132
13:00+15з6114272 0.1 9992456
16:00+13з7155699 0.3 9992163
19:00+11зсз6136680 0.3 10011721
22:00+7зсз5128520 0.4 10031082
16 мая, вс
вс1601:00+5зсз311926 0.0 1004627
04:00+4зсз289720 0.0 1004232
07:00+6зсз288895 0.0 1004333
10:00+12з5106466 0.0 10031232
13:00+16зсз611488 0.1 10021812
16:00+18зсз610395 0.1 10012032
19:00+16ссз25480 0.0 1000835
22:00+9вюв22715 0.0 100017